HST 1 20580U 90037B 25179.75703283 .00004124 00000-0 15038-3 0 9994 2 20580 28.4690 326.4877 0001899 214.1208 145.9265 15.25421852734458 ISS (ZARYA) 1 25544U 98067A 25180.40111667 .00006198 00000-0 11529-3 0 9997 2 25544 51.6371 246.5382 0002105 307.6057 156.2290 15.50296331517059 CXO 1 25867U 99040B 25182.66035926 .00000377 00000-0 00000-0 0 9992 2 25867 49.8474 128.9801 8399593 309.7738 0.2684 0.37807753 15992